Williamsport, PA

7:55 AM EDT on July 28, 2017 (GMT -0400)
Williamsport Rgnl

Weather History for KIPT - March, 2013

Change the Weather History Date:

Sunday, March 10, 2013

  Actual Average Record
Temperature  
Mean Temperature 44 °F 36 °F  
Max Temperature 60 °F 45 °F 71 °F (1977)
Min Temperature 27 °F 26 °F -2 °F (1996)
Degree Days  
Heating Degree Days 21 29  
Month to date heating degree days 286 305  
Since 1 July heating degree days 4452 4772  
Cooling Degree Days 0 0  
Month to date cooling degree days 0 0  
Year to date cooling degree days 0 0  
Moisture  
Dew Point 21 °F    
Average Humidity 54    
Maximum Humidity 85    
Minimum Humidity 22    
Precipitation  
Precipitation 0.00 in 0.08 in 2.67 in (2011)
Month to date precipitation T 0.85  
Year to date precipitation 4.46 5.89  
Snow  
Snow 0.00 in 0.30 in 7.00 in (1928)
Month to date snowfall T 3.0  
Since 1 July snowfall 27.1 31.0  
Snow Depth 0.00 in    
Sea Level Pressure  
Sea Level Pressure 30.23 in    
Wind  
Wind Speed 5 mph (East)    
Max Wind Speed 15 mph    
Max Gust Speed 24 mph    
Visibility 10 miles    
Events      
T = Trace of Precipitation, MM = Missing Value Source: NWS Daily Summary

Daily Weather History Graph

Daily Weather History Graph

Search for Another Location

Airport or City:

Trip Planner

Search our weather history database for the weather conditions in past years. The results will help you decide how hot, cold, wet, or windy it might be!

Date:

Astronomy

Mar. 10, 2013 Rise Set
Actual Time 7:27 AM EDT 7:09 PM EDT
Civil Twilight 6:59 AM EDT 7:36 PM EDT
Nautical Twilight 6:27 AM EDT 8:08 PM EDT
Astronomical Twilight 5:55 AM EDT 8:40 PM EDT
Moon 6:26 AM EDT (3/10) 6:14 PM EDT (3/10)
Length of Visible Light 12h 36m
Length of Day
11h 41m
Waning Crescent, 2% of the Moon is Illuminated
Mar 10
Waning Crescent
Mar 11
New
Mar 19
First Quarter
Mar 27
Full
Apr 3
Last Quarter

Hourly Weather History & Observations

Time (EDT) Temp. Windchill Dew Point Humidity Pressure Visibility Wind Dir Wind Speed Gust Speed Precip Events Conditions
12:54 AM 30.0 °F - 21.9 °F 72% 30.30 in 10.0 mi Calm Calm - N/A   Clear
1:54 AM 28.9 °F - 23.0 °F 78% 30.30 in 10.0 mi Calm Calm - N/A   Clear
3:54 AM 28.0 °F - 21.9 °F 78% 30.29 in 10.0 mi Calm Calm - N/A   Clear
4:54 AM 28.9 °F - 21.9 °F 75% 30.27 in 10.0 mi Calm Calm - N/A   Clear
5:54 AM 28.9 °F - 24.1 °F 82% 30.29 in 10.0 mi Calm Calm - N/A   Clear
6:54 AM 28.9 °F - 23.0 °F 78% 30.30 in 10.0 mi Calm Calm - N/A   Clear
7:54 AM 30.2 °F 25.4 °F 24.8 °F 80% 30.27 in 10.0 mi East 4.6 mph - N/A   Partly Cloudy
8:54 AM 32.0 °F - 25.0 °F 75% 30.30 in 10.0 mi Calm Calm - N/A   Mostly Cloudy
9:54 AM 35.1 °F 30.1 °F 26.1 °F 70% 30.30 in 10.0 mi ESE 5.8 mph - N/A   Mostly Cloudy
10:54 AM 46.9 °F - 18.0 °F 32% 30.29 in 10.0 mi NE 9.2 mph - N/A   Scattered Clouds
11:54 AM 50.0 °F - 18.0 °F 28% 30.28 in 10.0 mi East 4.6 mph - N/A   Clear
12:54 PM 52.0 °F - 21.0 °F 30% 30.26 in 10.0 mi ENE 5.8 mph - N/A   Partly Cloudy
1:54 PM 55.9 °F - 21.9 °F 27% 30.23 in 10.0 mi Variable 5.8 mph 16.1 mph N/A   Clear
2:54 PM 57.0 °F - 21.9 °F 26% 30.20 in 10.0 mi Variable 4.6 mph 16.1 mph N/A   Clear
3:54 PM 57.0 °F - 21.9 °F 26% 30.19 in 10.0 mi Variable 4.6 mph 18.4 mph N/A   Scattered Clouds
4:54 PM 59.0 °F - 21.9 °F 24% 30.17 in 10.0 mi ESE 6.9 mph 18.4 mph N/A   Clear
5:54 PM 60.1 °F - 21.0 °F 22% 30.16 in 10.0 mi SE 9.2 mph 19.6 mph N/A   Clear
6:54 PM 57.9 °F - 21.0 °F 24% 30.15 in 10.0 mi East 10.4 mph 18.4 mph N/A   Clear
7:54 PM 55.0 °F - 19.9 °F 25% 30.14 in 10.0 mi East 10.4 mph 21.9 mph N/A   Clear
8:54 PM 53.1 °F - 18.0 °F 25% 30.17 in 10.0 mi ENE 10.4 mph - N/A   Clear
9:54 PM 51.8 °F - 15.8 °F 24% 30.18 in 10.0 mi NE 10.4 mph 16.1 mph N/A   Clear
10:54 PM 53.1 °F - 15.1 °F 22% 30.19 in 10.0 mi Variable 6.9 mph 23.0 mph N/A   Clear
11:54 PM 51.1 °F - 18.0 °F 27% 30.17 in 10.0 mi Variable 4.6 mph - N/A   Clear
12:54 AM 48.9 °F - 23.0 °F 36% 30.15 in 10.0 mi ENE 10.4 mph - N/A   Clear